GW0701 Weather Reports


Display with metric or nautical units.
time (UTC)temp
F
wind
direction
speed
MPH
gust
MPH
rain 1hr
in
rain 24hr
in
rain mn
in
humidity
%
barometer
mb
20260905213654 93 46 1.0 2.0 0.00 0.00 0.00 65 1012.8
20260905213150 93 294 2.0 2.0 0.00 0.00 0.00 64 1012.6
20260905212645 95 266 1.0 2.0 0.00 0.00 0.00 63 1012.4
20260905212144 95 37 1.0 1.0 0.00 0.00 0.00 61 1012.6
20260905211639 97 20 2.0 3.0 0.00 0.00 0.00 56 1012.6
20260905211134 96 327 1.0 2.0 0.00 0.00 0.00 56 1012.6
20260905210631 96 299 1.0 1.0 0.00 0.00 0.00 57 1012.6
20260905210126 97 252 2.0 3.0 0.00 0.00 0.00 55 1012.9
20260905205624 96 290 3.0 3.0 0.00 0.00 0.00 55 1012.7
20260905205119 96 331 3.0 3.0 0.00 0.00 0.00 57 1012.9
20260905204618 96 278 2.0 2.0 0.00 0.00 0.00 56 1012.7
20260905204114 95 311 0.0 1.0 0.00 0.00 0.00 56 1012.9
20260905203614 96 8 4.0 5.0 0.00 0.00 0.00 56 1012.9
20260905203109 95 226 2.0 2.0 0.00 0.00 0.00 56 1012.9
20260905202604 95 318 4.0 6.0 0.00 0.00 0.00 56 1013.1
20260905202059 95 14 4.0 5.0 0.00 0.00 0.00 58 1013.4
20260905201555 95 276 4.0 6.0 0.00 0.00 0.00 58 1013.2
20260905201054 95 267 2.0 3.0 0.00 0.00 0.00 57 1013.4
20260905200550 96 321 6.0 7.0 0.00 0.00 0.00 56 1013.3
20260905200044 95 305 3.0 3.0 0.00 0.00 0.00 57 1013.3
20260905195544 96 298 1.0 1.0 0.00 0.00 0.00 57 1013.3
20260905195040 96 300 3.0 3.0 0.00 0.00 0.00 59 1013.4
20260905194539 96 25 1.0 2.0 0.00 0.00 0.00 57 1013.5
20260905194038 96 308 0.0 1.0 0.00 0.00 0.00 57 1013.3
20260905193534 96 60 6.0 8.0 0.00 0.00 0.00 58 1013.5
20260905193029 95 125 1.0 1.0 0.00 0.00 0.00 61 1013.6
20260905192524 95 321 3.0 3.0 0.00 0.00 0.00 56 1013.6
20260905192020 96 19 3.0 3.0 0.00 0.00 0.00 57 1013.5
20260905191519 94 271 2.0 3.0 0.00 0.00 0.00 60 1013.6
20260905191018 94 320 2.0 3.0 0.00 0.00 0.00 59 1013.7
20260905190516 94 266 1.0 1.0 0.00 0.00 0.00 61 1013.7
20260905190016 94 355 2.0 2.0 0.00 0.00 0.00 63 1013.6
20260905185510 95 352 2.0 3.0 0.00 0.00 0.00 59 1013.8
20260905185009 95 20 6.0 7.0 0.00 0.00 0.00 58 1013.6
20260905184504 95 334 3.0 5.0 0.00 0.00 0.00 58 1013.9
20260905184003 95 0 5.0 6.0 0.00 0.00 0.00 57 1013.8
20260905183503 95 283 0.0 1.0 0.00 0.00 0.00 57 1013.9
20260905182957 95 13 3.0 3.0 0.00 0.00 0.00 57 1013.9
20260905182457 95 33 2.0 3.0 0.00 0.00 0.00 59 1013.8
20260905181952 94 319 3.0 3.0 0.00 0.00 0.00 59 1013.9
20260905181447 95 239 0.0 1.0 0.00 0.00 0.00 60 1014.0
20260905180946 94 328 2.0 2.0 0.00 0.00 0.00 58 1014.1
20260905180441 94 35 2.0 2.0 0.00 0.00 0.00 58 1013.9
20260905175936 94 16 3.0 3.0 0.00 0.00 0.00 57 1013.9
20260905175435 95 15 2.0 2.0 0.00 0.00 0.00 57 1014.0
20260905174931 95 320 1.0 1.0 0.00 0.00 0.00 58 1014.0
20260905174426 95 169 0.0 1.0 0.00 0.00 0.00 59 1014.0
20260905173922 94 300 1.0 1.0 0.00 0.00 0.00 58 1014.0
20260905173418 95 112 4.0 5.0 0.00 0.00 0.00 58 1014.3
20260905172913 95 326 2.0 2.0 0.00 0.00 0.00 58 1014.1
20260905172410 96 6 0.0 1.0 0.00 0.00 0.00 57 1014.3
20260905171907 96 242 0.0 1.0 0.00 0.00 0.00 58 1014.5
20260905171403 95 266 1.0 1.0 0.00 0.00 0.00 60 1014.5
20260905170859 96 266 0.0 1.0 0.00 0.00 0.00 57 1014.5
20260905170355 93 228 1.0 1.0 0.00 0.00 0.00 63 1014.4
20260905165854 93 89 0.0 1.0 0.00 0.00 0.00 63 1014.5
20260905165350 94 11 4.0 5.0 0.00 0.00 0.00 60 1014.6
20260905164844 93 23 3.0 3.0 0.00 0.00 0.00 62 1014.5
20260905164339 93 356 6.0 8.0 0.00 0.00 0.00 62 1014.7
20260905163835 93 38 4.0 5.0 0.00 0.00 0.00 65 1014.6
20260905163331 94 353 3.0 3.0 0.00 0.00 0.00 65 1014.6
20260905162827 95 268 1.0 1.0 0.00 0.00 0.00 63 1014.4
20260905162326 95 266 2.0 2.0 0.00 0.00 0.00 59 1014.5
20260905161821 95 252 0.0 1.0 0.00 0.00 0.00 62 1014.7
20260905161320 94 226 0.0 1.0 0.00 0.00 0.00 62 1014.5
20260905160818 94 246 0.0 0.0 0.00 0.00 0.00 65 1014.4
20260905160313 94 285 1.0 1.0 0.00 0.00 0.00 63 1014.4
20260905155807 93 235 1.0 1.0 0.00 0.00 0.00 67 1014.0
20260905155301 94 241 2.0 2.0 0.00 0.00 0.00 64 1014.3
20260905154755 94 256 0.0 1.0 0.00 0.00 0.00 65 1014.2
20260905154251 93 259 0.0 1.0 0.00 0.00 0.00 66 1014.4
20260905153746 92 257 0.0 1.0 0.00 0.00 0.00 67 1014.2
20260905153242 92 233 0.0 0.0 0.00 0.00 0.00 67 1014.1
20260905152737 92 248 1.0 2.0 0.00 0.00 0.00 67 1014.4
20260905152236 91 253 1.0 1.0 0.00 0.00 0.00 69 1014.4
20260905151731 92 288 1.0 1.0 0.00 0.00 0.00 69 1014.2
20260905151227 90 241 0.0 1.0 0.00 0.00 0.00 69 1014.3
20260905150727 91 239 1.0 1.0 0.00 0.00 0.00 68 1014.2
20260905150226 90 241 2.0 3.0 0.00 0.00 0.00 69 1014.0
20260905145724 90 269 1.0 2.0 0.00 0.00 0.00 70 1014.3
20260905145219 89 245 1.0 1.0 0.00 0.00 0.00 72 1013.9
20260905144717 88 54 1.0 1.0 0.00 0.00 0.00 74 1013.9
20260905144212 89 102 1.0 2.0 0.00 0.00 0.00 73 1014.0
20260905143711 89 220 0.0 0.0 0.00 0.00 0.00 73 1014.1
20260905143206 89 226 0.0 0.0 0.00 0.00 0.00 73 1014.2
20260905142704 88 242 0.0 1.0 0.00 0.00 0.00 74 1014.3
20260905142159 87 248 0.0 0.0 0.00 0.00 0.00 76 1014.1
20260905141655 86 246 1.0 1.0 0.00 0.00 0.00 75 1013.9
20260905141150 87 243 1.0 1.0 0.00 0.00 0.00 74 1014.2
20260905140646 86 198 1.0 1.0 0.00 0.00 0.00 76 1014.3
20260905140145 86 187 2.0 2.0 0.00 0.00 0.00 77 1014.2
20260905135640 86 229 1.0 1.0 0.00 0.00 0.00 75 1014.1
20260905135135 85 235 0.0 1.0 0.00 0.00 0.00 76 1014.2
20260905134624 85 232 0.0 1.0 0.00 0.00 0.00 76 1014.1
20260905134123 84 222 0.0 1.0 0.00 0.00 0.00 77 1013.9
20260905133619 83 199 1.0 1.0 0.00 0.00 0.00 80 1014.2
20260905133119 83 202 1.0 1.0 0.00 0.00 0.00 80 1013.9
20260905132618 82 208 0.0 0.0 0.00 0.00 0.00 82 1013.9
20260905132113 81 186 2.0 2.0 0.00 0.00 0.00 82 1013.9
20260905131608 81 190 1.0 2.0 0.00 0.00 0.00 83 1014.0
20260905131104 81 191 1.0 1.0 0.00 0.00 0.00 83 1014.0
20260905130603 81 194 1.0 1.0 0.00 0.00 0.00 82 1013.9
20260905130058 81 227 0.0 0.0 0.00 0.00 0.00 83 1014.0
20260905125557 80 224 0.0 0.0 0.00 0.00 0.00 87 1014.0
20260905125053 79 243 0.0 1.0 0.00 0.00 0.00 87 1014.0
20260905124549 78 201 0.0 0.0 0.00 0.00 0.00 88 1014.1
20260905124045 79 202 0.0 0.0 0.00 0.00 0.00 88 1014.1
20260905123540 79 227 0.0 0.0 0.00 0.00 0.00 89 1014.0
20260905123037 77 252 0.0 0.0 0.00 0.00 0.00 92 1013.8
20260905122537 77 252 0.0 0.0 0.00 0.00 0.00 94 1013.8
20260905122031 75 252 0.0 0.0 0.00 0.00 0.00 96 1013.8
20260905121526 75 252 0.0 0.0 0.00 0.00 0.00 98 1013.7
20260905121021 74 252 0.0 0.0 0.00 0.00 0.00 98 1013.7
20260905120521 74 253 0.0 0.0 0.00 0.00 0.00 98 1013.5
20260905120016 74 260 0.0 0.0 0.00 0.00 0.00 98 1013.4
20260905115515 73 242 0.0 0.0 0.00 0.00 0.00 98 1013.3
20260905115009 73 242 0.0 0.0 0.00 0.00 0.00 98 1013.2
20260905114504 73 242 0.0 0.0 0.00 0.00 0.00 98 1013.3
20260905114003 73 242 0.0 0.0 0.00 0.00 0.00 98 1013.1
20260905113458 73 238 0.0 0.0 0.00 0.00 0.00 98 1013.5
20260905112953 73 238 0.0 0.0 0.00 0.00 0.00 98 1013.1
20260905112448 73 238 0.0 0.0 0.00 0.00 0.00 98 1013.1
20260905111944 73 242 0.0 0.0 0.00 0.00 0.00 98 1012.9
20260905111443 73 240 0.0 0.0 0.00 0.00 0.00 98 1013.2
20260905110938 74 226 0.0 0.0 0.00 0.00 0.00 98 1013.1
20260905110431 73 246 0.0 0.0 0.00 0.00 0.00 97 1012.8
20260905105931 74 247 0.0 1.0 0.00 0.00 0.00 97 1013.1
20260905105426 74 230 0.0 0.0 0.00 0.00 0.00 96 1013.0
20260905104925 74 228 0.0 0.0 0.00 0.00 0.00 96 1013.0
20260905104421 74 226 0.0 0.0 0.00 0.00 0.00 96 1012.9
20260905103916 74 221 0.0 0.0 0.00 0.00 0.00 97 1013.0
20260905103412 73 197 2.0 2.0 0.00 0.00 0.00 98 1012.9
20260905102907 73 80 0.0 0.0 0.00 0.00 0.00 98 1013.0
20260905102404 73 80 0.0 0.0 0.00 0.00 0.00 98 1012.9
20260905101858 73 80 0.0 0.0 0.00 0.00 0.00 98 1013.1
20260905101356 73 80 0.0 0.0 0.00 0.00 0.00 98 1012.8
20260905100851 73 80 0.0 0.0 0.00 0.00 0.00 98 1013.2
20260905100347 73 80 0.0 0.0 0.00 0.00 0.00 98 1013.0
20260905095846 74 80 0.0 0.0 0.00 0.00 0.00 98 1013.2
20260905095341 73 80 0.0 0.0 0.00 0.00 0.00 98 1013.0
20260905094836 73 78 1.0 1.0 0.00 0.00 0.00 97 1013.1
20260905094331 74 77 0.0 0.0 0.00 0.00 0.00 97 1012.9
20260905093830 74 341 0.0 1.0 0.00 0.00 0.00 97 1013.1
20260905093326 74 282 1.0 1.0 0.00 0.00 0.00 96 1013.0
20260905092822 74 245 0.0 0.0 0.00 0.00 0.00 96 1013.0
20260905092321 74 212 0.0 0.0 0.00 0.00 0.00 96 1012.8
20260905091817 74 211 0.0 0.0 0.00 0.00 0.00 96 1013.1
20260905091316 75 227 0.0 0.0 0.00 0.00 0.00 96 1012.8
20260905090815 75 268 1.0 1.0 0.00 0.00 0.00 95 1012.9
20260905090311 75 246 0.0 1.0 0.00 0.00 0.00 95 1013.1
20260905085810 74 245 0.0 0.0 0.00 0.00 0.00 95 1013.1
20260905085306 74 246 0.0 1.0 0.00 0.00 0.00 96 1013.2
20260905084800 74 224 0.0 0.0 0.00 0.00 0.00 96 1013.1
20260905084300 75 242 1.0 1.0 0.00 0.00 0.00 95 1013.1
20260905083755 75 249 0.0 0.0 0.00 0.00 0.00 96 1013.0
20260905083250 75 147 0.0 1.0 0.00 0.00 0.00 95 1013.1
20260905082746 75 220 0.0 0.0 0.00 0.00 0.00 95 1012.9
20260905082242 75 220 0.0 0.0 0.00 0.00 0.00 95 1013.0
20260905081741 75 233 0.0 0.0 0.00 0.00 0.00 94 1013.2
20260905081237 75 233 0.0 0.0 0.00 0.00 0.00 93 1013.3
20260905080731 76 201 0.0 0.0 0.00 0.00 0.00 93 1013.2
20260905080231 75 200 0.0 0.0 0.00 0.00 0.00 93 1013.4
20260905075730 76 200 0.0 0.0 0.00 0.00 0.00 93 1013.4
20260905075229 75 200 0.0 0.0 0.00 0.00 0.00 93 1013.4
20260905074728 75 188 0.0 0.0 0.00 0.00 0.00 93 1013.3
20260905074224 76 205 0.0 1.0 0.00 0.00 0.00 93 1013.4
20260905073719 76 207 0.0 0.0 0.00 0.00 0.00 92 1013.5
20260905073215 76 207 0.0 0.0 0.00 0.00 0.00 91 1013.5
20260905072714 76 209 0.0 0.0 0.00 0.00 0.00 91 1013.6
20260905072210 77 209 0.0 0.0 0.00 0.00 0.00 91 1013.3
20260905071706 77 209 0.0 0.0 0.00 0.00 0.00 91 1013.4
20260905071202 77 209 0.0 0.0 0.00 0.00 0.00 89 1013.5
20260905070656 77 209 0.0 0.0 0.00 0.00 0.00 87 1013.6
20260905070153 77 209 0.0 0.0 0.00 0.00 0.00 88 1013.6
20260905065651 77 209 0.0 0.0 0.00 0.00 0.00 88 1013.7
20260905065145 77 209 0.0 0.0 0.00 0.00 0.00 89 1013.6
20260905064641 76 209 0.0 0.0 0.00 0.00 0.00 90 1013.5
20260905064137 76 209 0.0 0.0 0.00 0.00 0.00 91 1013.2
20260905063635 76 208 1.0 1.0 0.00 0.00 0.00 91 1013.2
20260905063132 77 210 1.0 1.0 0.00 0.00 0.00 91 1013.1
20260905062627 77 205 1.0 1.0 0.00 0.00 0.00 90 1013.3
20260905062126 77 203 1.0 1.0 0.00 0.00 0.00 90 1013.2
20260905061621 77 203 1.0 1.0 0.00 0.00 0.00 90 1013.3
20260905061120 77 203 1.0 1.0 0.00 0.00 0.00 90 1013.3
20260905060616 77 203 0.0 0.0 0.00 0.00 0.00 90 1013.4
20260905060113 77 203 0.0 0.0 0.00 0.00 0.00 89 1013.4
20260905055611 77 203 0.0 0.0 0.00 0.00 0.00 89 1013.2
20260905055106 77 203 1.0 1.0 0.00 0.00 0.00 89 1013.4
20260905054602 77 203 0.0 0.0 0.00 0.00 0.00 89 1013.3
20260905054057 77 202 0.0 0.0 0.00 0.00 0.00 90 1013.5
20260905053556 78 201 0.0 0.0 0.00 0.00 0.00 88 1013.4
20260905053052 78 205 1.0 1.0 0.00 0.00 0.00 87 1013.3
20260905052551 78 205 0.0 0.0 0.00 0.00 0.00 87 1013.2
20260905052046 78 205 0.0 0.0 0.00 0.00 0.00 88 1013.4
20260905051541 78 205 0.0 0.0 0.00 0.00 0.00 89 1013.3
20260905051038 79 205 0.0 0.0 0.00 0.00 0.00 88 1013.4
20260905050534 79 202 0.0 0.0 0.00 0.00 0.00 85 1013.3
20260905050031 80 214 0.0 0.0 0.00 0.00 0.00 84 1013.2
20260905045526 80 214 0.0 0.0 0.00 0.00 0.00 82 1013.3
20260905045021 80 214 0.0 0.0 0.00 0.00 0.00 82 1013.1
20260905044520 80 214 0.0 0.0 0.00 0.00 0.00 82 1013.0
20260905044015 80 214 0.0 0.0 0.00 0.00 0.00 81 1013.1
20260905043515 80 214 0.0 0.0 0.00 0.00 0.00 81 1013.2
20260905043010 80 214 0.0 0.0 0.00 0.00 0.00 82 1013.3
20260905042508 80 214 0.0 0.0 0.00 0.00 0.00 84 1013.1
20260905042004 80 214 0.0 0.0 0.00 0.00 0.00 82 1013.1
20260905041459 80 214 0.0 0.0 0.00 0.00 0.00 82 1013.0
20260905040955 80 214 0.0 0.0 0.00 0.00 0.00 82 1012.8
20260905040454 80 214 0.0 0.0 0.00 0.00 0.00 81 1013.0
20260905035953 81 214 0.0 0.0 0.00 0.00 0.00 81 1012.9
20260905035448 80 214 0.0 0.0 0.00 0.00 0.00 82 1012.8
20260905034946 81 215 0.0 0.0 0.00 0.00 0.00 82 1012.9
20260905034441 81 218 1.0 1.0 0.00 0.00 0.00 82 1012.9
20260905033939 81 216 0.0 0.0 0.00 0.00 0.00 82 1013.0
20260905033439 81 216 0.0 0.0 0.00 0.00 0.00 82 1013.0
20260905032934 80 216 0.0 0.0 0.00 0.00 0.00 83 1013.0
20260905032430 81 218 0.0 0.0 0.00 0.00 0.00 84 1013.1
20260905031924 81 218 0.0 0.0 0.00 0.00 0.00 83 1013.0
20260905031420 81 218 0.0 0.0 0.00 0.00 0.00 83 1013.0
20260905030915 80 218 0.0 0.0 0.00 0.00 0.00 86 1013.0
20260905030411 80 218 0.0 0.0 0.00 0.00 0.00 87 1013.2
20260905025910 80 218 0.0 0.0 0.00 0.00 0.00 86 1013.1
20260905025405 80 218 0.0 0.0 0.00 0.00 0.00 86 1013.2
20260905024902 81 218 0.0 0.0 0.00 0.00 0.00 85 1013.1
20260905024356 81 218 0.0 0.0 0.00 0.00 0.00 85 1013.1
20260905023852 81 218 0.0 0.0 0.00 0.00 0.00 86 1013.1
20260905023347 82 218 0.0 0.0 0.00 0.00 0.00 84 1013.0
20260905022846 82 218 0.0 0.0 0.00 0.00 0.00 83 1012.8
20260905022341 82 218 0.0 0.0 0.00 0.00 0.00 81 1013.2
20260905021836 82 218 0.0 0.0 0.00 0.00 0.00 81 1012.8
20260905021331 82 218 0.0 0.0 0.00 0.00 0.00 80 1013.1
20260905020826 82 218 0.0 0.0 0.00 0.00 0.00 82 1012.9
20260905020321 82 218 0.0 0.0 0.00 0.00 0.00 84 1013.0
20260905015820 82 218 0.0 0.0 0.00 0.00 0.00 82 1012.9
20260905015314 82 218 0.0 0.0 0.00 0.00 0.00 82 1012.9
20260905014813 82 218 0.0 0.0 0.00 0.00 0.00 82 1012.9
20260905014309 82 218 0.0 0.0 0.00 0.00 0.00 82 1012.8
20260905013804 83 218 0.0 0.0 0.00 0.00 0.00 80 1012.8
20260905013300 83 218 0.0 0.0 0.00 0.00 0.00 79 1012.7
20260905012755 83 218 0.0 0.0 0.00 0.00 0.00 80 1012.6
20260905012251 83 218 0.0 0.0 0.00 0.00 0.00 80 1012.4
20260905011747 83 218 0.0 0.0 0.00 0.00 0.00 80 1012.2
20260905011243 83 218 0.0 0.0 0.00 0.00 0.00 80 1012.3
20260905010737 83 218 0.0 0.0 0.00 0.00 0.00 79 1012.4
20260905010232 83 218 0.0 0.0 0.00 0.00 0.00 78 1012.4
20260905005730 84 218 0.0 0.0 0.00 0.00 0.00 79 1012.4
20260905005225 84 218 0.0 0.0 0.00 0.00 0.00 76 1012.4
20260905004719 84 218 0.0 0.0 0.00 0.00 0.00 76 1012.2
20260905004214 85 218 0.0 0.0 0.00 0.00 0.00 77 1012.3
20260905003714 85 218 0.0 0.0 0.00 0.00 0.00 77 1012.1
20260905003210 86 218 1.0 1.0 0.00 0.00 0.00 78 1012.2
20260905002706 87 211 0.0 0.0 0.00 0.00 0.00 74 1011.9
20260905002205 87 211 0.0 0.0 0.00 0.00 0.00 74 1011.7
20260905001701 88 211 0.0 0.0 0.00 0.00 0.00 72 1011.9
20260905001200 89 211 0.0 0.0 0.00 0.00 0.00 71 1012.1
20260905000655 90 212 0.0 0.0 0.00 0.00 0.00 70 1012.2
20260905000151 90 212 0.0 0.0 0.00 0.00 0.00 68 1012.0
20260904235651 91 211 0.0 0.0 0.00 0.00 0.00 66 1011.9
20260904235151 92 217 1.0 1.0 0.00 0.00 0.00 63 1012.0
20260904234646 92 214 0.0 0.0 0.00 0.00 0.00 62 1012.1
20260904234141 92 214 0.0 1.0 0.00 0.00 0.00 62 1011.9
20260904233637 92 211 1.0 1.0 0.00 0.00 0.00 62 1011.6
20260904233133 93 223 0.0 1.0 0.00 0.00 0.00 60 1012.0
20260904232629 93 222 1.0 1.0 0.00 0.00 0.00 60 1011.9
20260904232125 93 219 2.0 2.0 0.00 0.00 0.00 60 1011.8
20260904231620 93 212 1.0 2.0 0.00 0.00 0.00 60 1011.8
20260904231115 93 235 1.0 2.0 0.00 0.00 0.00 59 1012.0
20260904230614 94 210 2.0 2.0 0.00 0.00 0.00 59 1011.8
20260904230110 94 231 1.0 1.0 0.00 0.00 0.00 59 1011.8
20260904225607 94 207 2.0 2.0 0.00 0.00 0.00 58 1012.1
20260904225103 95 234 1.0 1.0 0.00 0.00 0.00 59 1011.9
20260904224557 95 220 2.0 2.0 0.00 0.00 0.00 56 1011.8
20260904224052 95 204 2.0 2.0 0.00 0.00 0.00 56 1011.9
20260904223551 95 199 5.0 7.0 0.00 0.00 0.00 56 1012.0
20260904223047 95 220 2.0 2.0 0.00 0.00 0.00 54 1012.2
20260904222542 95 176 3.0 3.0 0.00 0.00 0.00 55 1012.0
20260904222038 95 212 1.0 2.0 0.00 0.00 0.00 54 1012.2
20260904221532 95 210 1.0 2.0 0.00 0.00 0.00 56 1012.3
20260904221027 96 179 5.0 6.0 0.00 0.00 0.00 54 1012.2
20260904220527 96 189 3.0 3.0 0.00 0.00 0.00 54 1012.0
20260904220023 96 204 2.0 2.0 0.00 0.00 0.00 53 1012.0
20260904215522 96 225 2.0 3.0 0.00 0.00 0.00 54 1012.2
20260904215018 97 195 4.0 6.0 0.00 0.00 0.00 52 1012.4
20260904214513 97 239 2.0 2.0 0.00 0.00 0.00 53 1012.4
20260904214009 97 180 4.0 5.0 0.00 0.00 0.00 53 1012.3